Location: Goettingen
(51.5300°N, 9.9433°E)
Time: 07:32:18
(UTC+01:00)

ISS - Pass Details

Date: 13 January 2018
Orbit: 402 x 407 km, 51.6° (Epoch: 21 January)

Event Time Altitude Azimuth Distance (km) Brightness Sun altitude
Exits shadow 05:33:42 22° 139° (SE) 955 -1.5 -25.1°
Drops below altitude 10° 05:35:03 10° 129° (SE) 1,463 -0.3 -24.9°
Sets 05:37:10 0° 123° (ESE) 2,322 1.0 -24.6°
